This is the latest recevied weather packets stored in our database for station/object AB4CZ-1. If no packets are shown the sender has not sent any weather packets the latest 1 day(s).
| Time | Temp. | Humidity | Pressure | Rain* | Wind** | Luminosity | Snow |
|---|---|---|---|---|---|---|---|
| 1778009193 | 26.67° C | 41% | 1014.8 hPa | 0 mm | 0 m/s | - | - |
| 1778008592 | 26.67° C | 42% | 1014.9 hPa | 0 mm | 0.45 m/s, 124° | - | - |
| 1778007993 | 26.67° C | 40% | 1015 hPa | 0 mm | 0 m/s | - | - |
| 1778007693 | 26.67° C | 41% | 1015 hPa | 0 mm | 0 m/s | - | - |
| 1778006846 | 27.22° C | 40% | 1015.2 hPa | 0 mm | 0 m/s | - | - |
| 1778006792 | 27.22° C | 40% | 1015.2 hPa | 0 mm | 0 m/s | - | - |
| 1778006496 | 26.67° C | 39% | 1015.3 hPa | 0 mm | 0 m/s | - | - |
| 1778005893 | 26.67° C | 39% | 1015.5 hPa | 0 mm | 0 m/s | - | - |
| 1778005592 | 26.67° C | 38% | 1015.5 hPa | 0 mm | 0 m/s | - | - |
| 1778005296 | 27.22° C | 39% | 1015.5 hPa | 0 mm | 0 m/s | - | - |
| 1778004992 | 27.22° C | 41% | 1015.8 hPa | 0 mm | 0 m/s | - | - |
| 1778004392 | 27.22° C | 41% | 1015.8 hPa | 0 mm | 0 m/s | - | - |
| 1778004092 | 27.22° C | 41% | 1015.9 hPa | 0 mm | 0 m/s | - | - |
| 1778003795 | 26.67° C | 40% | 1016 hPa | 0 mm | 0 m/s | - | - |
| 1778003507 | 26.67° C | 40% | 1015.9 hPa | 0 mm | 0 m/s | - | - |
| 1778002954 | 26.67° C | 40% | 1016.2 hPa | 0 mm | 0 m/s | - | - |
| 1778002892 | 26.67° C | 40% | 1016.2 hPa | 0 mm | 0 m/s | - | - |
| 1778002593 | 26.67° C | 39% | 1016.2 hPa | 0 mm | 0 m/s | - | - |
| 1778001993 | 26.11° C | 42% | 1016.2 hPa | 0 mm | 0.89 m/s, 104° | - | - |
| 1778001408 | 26.11° C | 42% | 1016.3 hPa | 0 mm | 0 m/s | - | - |
| 1778000494 | 26.11° C | 41% | 1016.3 hPa | 0 mm | 0 m/s | - | - |
| 1778000192 | 26.11° C | 41% | 1016.2 hPa | 0 mm | 0 m/s | - | - |
| 1777999592 | 26.11° C | 42% | 1016.2 hPa | 0 mm | 0 m/s | - | - |
| 1777999295 | 26.11° C | 41% | 1016.1 hPa | 0 mm | 0.89 m/s, 90° | - | - |
| 1777998393 | 26.11° C | 40% | 1016.4 hPa | 0 mm | 0 m/s | - | - |
* Rain latest hour (hover to see other rain measurements)
** Current wind speed in m/s (hover to see current wind gust speed)